Location: Wawayanda State Park
(41.1833°N, 74.4333°W)
Time: 21:34:16
(UTC-04:00)

RESURS DK-1 - Visible Passes

Search period start: 24 July 2014 00:00
Search period end: 03 August 2014 00:00
Orbit: 561 x 568 km, 69.9° (Epoch: 24 July)

Date Brightness Start Highest point End Pass type
(mag) Time Alt. Az. Time Alt. Az. Time Alt. Az.
24 Jul 3.6 00:16:12 41° N 00:16:12 41° N 00:19:02 10° NNE visible
25 Jul 3.5 00:15:47 42° NNW 00:15:47 42° NNW 00:18:57 10° NNE visible
25 Jul 4.6 22:39:19 13° ENE 22:39:19 13° ENE 22:40:03 10° ENE visible
26 Jul 3.8 00:15:17 35° NW 00:15:17 35° NW 00:18:49 10° N visible
26 Jul 4.1 22:38:45 20° ENE 22:38:45 20° ENE 22:40:29 10° NE visible
27 Jul 4.2 00:14:42 26° WNW 00:15:02 26° WNW 00:18:36 10° N visible
27 Jul 3.4 22:38:02 31° ENE 22:38:02 31° ENE 22:40:45 10° NE visible
28 Jul 4.7 00:13:59 18° WNW 00:15:10 20° NW 00:18:17 10° N visible
28 Jul 2.6 22:37:11 53° E 22:37:11 53° E 22:40:54 10° NE visible
29 Jul 5.1 00:13:07 11° W 00:15:19 15° NW 00:17:48 10° NNW visible
29 Jul 2.2 22:36:05 59° S 22:36:48 79° ESE 22:40:59 10° NNE visible
30 Jul 5.4 00:14:05 10° WNW 00:15:30 11° NW 00:16:56 10° NNW visible
30 Jul 2.5 22:34:37 27° SW 22:36:48 72° WNW 22:40:58 10° NNE visible
31 Jul 4.2 20:57:04 10° SE 20:59:09 14° ESE 21:01:13 10° ENE visible
31 Jul 3.2 22:32:46 10° SW 22:36:49 50° WNW 22:40:54 10° NNE visible
01 Aug 3.8 20:56:03 10° SSE 20:59:01 19° ESE 21:01:59 10° ENE visible
01 Aug 3.9 22:33:02 10° SW 22:36:53 36° WNW 22:40:46 10° N visible
02 Aug 3.3 20:55:24 10° SSE 20:58:54 27° ESE 21:02:25 10° NE visible
02 Aug 4.5 22:33:25 10° WSW 22:36:58 27° WNW 22:40:33 10° N visible
